Bemidji, MN

3:12 PM CDT on September 21, 2017 (GMT -0500)
Bemidji-Beltrami County

Weather History for KBJI - November, 2014

Change the Weather History Date:

Saturday, November 15, 2014

  Actual Average Record
Temperature  
Mean Temperature 8 °F -  
Max Temperature 19 °F 37 °F 63 °F (1953)
Min Temperature -2 °F 19 °F -5 °F (2002)
Degree Days  
Heating Degree Days 56    
Moisture  
Dew Point 2 °F    
Average Humidity 79    
Maximum Humidity 89    
Minimum Humidity 55    
Precipitation  
Precipitation 0.00 in - - ()
Sea Level Pressure  
Sea Level Pressure 30.14 in    
Wind  
Wind Speed 4 mph (WSW)    
Max Wind Speed 10 mph    
Max Gust Speed -    
Visibility 10 miles    
Events Snow    
Averages and records for this station are not official NWS values.
T = Trace of Precipitation, MM = Missing Value Source: NWS Daily Summary

Daily Weather History Graph

Daily Weather History Graph

Search for Another Location

Airport or City:

Trip Planner

Search our weather history database for the weather conditions in past years. The results will help you decide how hot, cold, wet, or windy it might be!

Date:

Astronomy

Nov. 15, 2014 Rise Set
Actual Time 7:24 AM CST 4:43 PM CST
Civil Twilight 6:51 AM CST 5:17 PM CST
Nautical Twilight 6:13 AM CST 5:54 PM CST
Astronomical Twilight 5:37 AM CST 6:30 PM CST
Moon 12:09 AM CST (11/15) 1:33 PM CST (11/15)
Length of Visible Light 10h 25m
Length of Day
9h 18m
Last Quarter, 40% of the Moon is Illuminated
Nov 15
Last Quarter
Nov 22
New
Nov 29
First Quarter
Dec 6
Full
Dec 14
Last Quarter

Hourly Weather History & Observations

Time (CST) Temp. Windchill Dew Point Humidity Pressure Visibility Wind Dir Wind Speed Gust Speed Precip Events Conditions
12:13 AM -0.0 °F - -2.9 °F 88% 30.22 in 10.0 mi Calm Calm - N/A   Clear
12:32 AM -1.1 °F - -3.6 °F 89% 30.22 in 5.0 mi Calm Calm - N/A   Clear
12:53 AM -2.4 °F - -5.4 °F 87% 30.22 in 10.0 mi Calm Calm - N/A   Clear
1:13 AM -2.6 °F - -6.2 °F 85% 30.22 in 10.0 mi Calm Calm - N/A   Clear
1:32 AM -2.6 °F - -5.8 °F 86% 30.22 in 10.0 mi Calm Calm - N/A   Clear
1:53 AM -1.3 °F -9.3 °F -4.4 °F 87% 30.22 in 10.0 mi WSW 3.5 mph - N/A   Clear
2:13 AM -2.9 °F -11.2 °F -6.2 °F 86% 30.22 in 10.0 mi WSW 3.5 mph - N/A   Clear
2:32 AM -1.3 °F -11.4 °F -4.4 °F 87% 30.22 in 10.0 mi WSW 4.6 mph - N/A   Clear
2:53 AM 1.9 °F -7.6 °F -1.1 °F 87% 30.22 in 10.0 mi WSW 4.6 mph - N/A   Clear
3:13 AM 1.4 °F -8.3 °F -2.0 °F 86% 30.22 in 10.0 mi SW 4.6 mph - N/A   Clear
3:33 AM 0.5 °F - -2.9 °F 85% 30.21 in 10.0 mi Calm Calm - N/A   Clear
3:52 AM -1.1 °F - -4.4 °F 86% 30.20 in 10.0 mi Calm Calm - N/A   Clear
4:13 AM -2.4 °F - -5.6 °F 86% 30.20 in 10.0 mi Calm Calm - N/A   Clear
4:32 AM -1.8 °F -9.9 °F -4.7 °F 88% 30.20 in 10.0 mi SW 3.5 mph - N/A   Clear
4:53 AM -0.4 °F -10.4 °F -3.5 °F 87% 30.19 in 10.0 mi SW 4.6 mph - N/A   Clear
5:13 AM 1.9 °F -9.2 °F -1.3 °F 86% 30.19 in 10.0 mi WSW 5.8 mph - N/A   Clear
5:52 AM 1.0 °F -6.7 °F -2.4 °F 86% 30.19 in 10.0 mi SW 3.5 mph - N/A   Clear
6:13 AM 0.7 °F -9.1 °F -2.6 °F 86% 30.19 in 10.0 mi SW 4.6 mph - N/A   Clear
6:32 AM 0.7 °F -9.1 °F -2.7 °F 86% 30.19 in 10.0 mi SW 4.6 mph - N/A   Clear
6:52 AM 0.5 °F -7.3 °F -2.6 °F 87% 30.19 in 10.0 mi SW 3.5 mph - N/A   Clear
7:13 AM -1.1 °F - -4.2 °F 87% 30.19 in 7.0 mi Calm Calm - N/A   Mostly Cloudy
7:32 AM 2.5 °F - -0.8 °F 86% 30.19 in 10.0 mi Calm Calm - N/A   Overcast
7:53 AM 2.7 °F -4.8 °F -0.8 °F 86% 30.20 in 7.0 mi SW 3.5 mph - N/A   Mostly Cloudy
8:13 AM 3.4 °F - 0.1 °F 86% 30.19 in 10.0 mi Calm Calm - N/A Snow Light Snow
8:33 AM 4.1 °F -5.1 °F 1.0 °F 87% 30.20 in 10.0 mi SW 4.6 mph - N/A   Overcast
8:52 AM 5.2 °F -3.8 °F 2.1 °F 87% 30.20 in 10.0 mi SW 4.6 mph - N/A   Mostly Cloudy
9:13 AM 5.4 °F -1.7 °F 2.3 °F 87% 30.20 in 7.0 mi SW 3.5 mph - N/A   Scattered Clouds
9:32 AM 6.6 °F -2.2 °F 3.6 °F 87% 30.21 in 7.0 mi SW 4.6 mph - N/A   Clear
9:52 AM 9.1 °F 0.8 °F 6.3 °F 88% 30.21 in 7.0 mi West 4.6 mph - N/A   Clear
10:13 AM 10.8 °F 4.5 °F 7.5 °F 87% 30.21 in 7.0 mi SW 3.5 mph - N/A   Clear
10:32 AM 10.6 °F 2.5 °F 7.2 °F 86% 30.21 in 7.0 mi West 4.6 mph - N/A   Clear
10:53 AM 11.7 °F 1.1 °F 6.8 °F 81% 30.20 in 10.0 mi West 6.9 mph - N/A   Clear
11:13 AM 12.6 °F 4.8 °F 7.0 °F 78% 30.19 in 7.0 mi WSW 4.6 mph - N/A   Clear
11:32 AM 14.9 °F 5.0 °F 7.7 °F 73% 30.19 in 7.0 mi WSW 6.9 mph - N/A   Clear
11:52 AM 16.5 °F 8.1 °F 7.9 °F 69% 30.18 in 7.0 mi West 5.8 mph - N/A   Clear
12:13 PM 18.0 °F 8.7 °F 7.7 °F 64% 30.17 in 10.0 mi West 6.9 mph - N/A   Clear
12:32 PM 18.5 °F 9.3 °F 7.5 °F 62% 30.16 in 10.0 mi West 6.9 mph - N/A   Clear
12:52 PM 19.0 °F 8.2 °F 8.4 °F 63% 30.15 in 10.0 mi West 9.2 mph - N/A   Clear
1:13 PM 19.2 °F 8.4 °F 8.8 °F 64% 30.14 in 10.0 mi West 9.2 mph - N/A   Clear
1:32 PM 19.2 °F 10.2 °F 9.7 °F 66% 30.13 in 10.0 mi West 6.9 mph - N/A   Clear
1:53 PM 19.0 °F 7.5 °F 9.5 °F 66% 30.12 in 10.0 mi WNW 10.4 mph - N/A   Clear
2:13 PM 19.2 °F 8.4 °F 8.6 °F 63% 30.12 in 10.0 mi West 9.2 mph - N/A   Clear
2:32 PM 19.0 °F 8.2 °F 8.1 °F 62% 30.11 in 10.0 mi West 9.2 mph - N/A   Clear
2:53 PM 19.0 °F 8.2 °F 7.0 °F 59% 30.10 in 10.0 mi West 9.2 mph - N/A   Clear
3:13 PM 18.9 °F 8.0 °F 5.9 °F 57% 30.10 in 10.0 mi West 9.2 mph - N/A   Clear
3:53 PM 16.7 °F 6.2 °F 3.2 °F 55% 30.10 in 10.0 mi West 8.1 mph - N/A   Clear
4:13 PM 15.1 °F 4.2 °F 3.0 °F 59% 30.10 in 10.0 mi West 8.1 mph - N/A   Clear
4:32 PM 14.4 °F 4.3 °F 2.8 °F 60% 30.10 in 10.0 mi West 6.9 mph - N/A   Clear
4:53 PM 13.1 °F 2.8 °F 2.5 °F 63% 30.09 in 10.0 mi West 6.9 mph - N/A   Clear
5:13 PM 12.0 °F 0.5 °F 1.6 °F 63% 30.09 in 10.0 mi West 8.1 mph - N/A   Clear
5:32 PM 11.1 °F 0.4 °F 2.1 °F 67% 30.08 in 10.0 mi West 6.9 mph - N/A   Clear
5:52 PM 11.7 °F 3.7 °F 3.0 °F 68% 30.08 in 10.0 mi WSW 4.6 mph - N/A   Clear
6:13 PM 9.5 °F 3.0 °F 2.5 °F 73% 30.08 in 10.0 mi SSW 3.5 mph - N/A   Clear
6:32 PM 9.9 °F 1.6 °F 2.7 °F 73% 30.07 in 10.0 mi WSW 4.6 mph - N/A   Clear
6:53 PM 9.3 °F -0.5 °F 3.2 °F 76% 30.07 in 10.0 mi SW 5.8 mph - N/A   Clear
7:13 PM 9.3 °F -1.7 °F 3.7 °F 78% 30.07 in 10.0 mi SW 6.9 mph - N/A   Clear
7:32 PM 8.4 °F -1.6 °F 3.2 °F 79% 30.06 in 10.0 mi SSW 5.8 mph - N/A   Clear
7:52 PM 8.8 °F -2.4 °F 3.9 °F 81% 30.05 in 10.0 mi SW 6.9 mph - N/A   Clear
8:13 PM 8.8 °F -2.4 °F 3.9 °F 81% 30.05 in 10.0 mi SSW 6.9 mph - N/A   Clear
8:32 PM 8.2 °F -1.8 °F 3.9 °F 83% 30.04 in 10.0 mi SW 5.8 mph - N/A   Clear
8:53 PM 8.4 °F -1.6 °F 4.5 °F 84% 30.04 in 10.0 mi WSW 5.8 mph - N/A   Clear
9:13 PM 8.2 °F -0.3 °F 4.1 °F 83% 30.03 in 10.0 mi SW 4.6 mph - N/A   Clear
9:32 PM 7.0 °F -1.7 °F 3.4 °F 85% 30.03 in 10.0 mi SW 4.6 mph - N/A   Clear
9:53 PM 7.3 °F -2.8 °F 3.9 °F 86% 30.02 in 10.0 mi SW 5.8 mph - N/A   Clear
10:13 PM 7.5 °F -6.9 °F 4.1 °F 86% 30.02 in 10.0 mi WSW 10.4 mph - N/A   Clear
10:32 PM 6.8 °F -2.0 °F 3.7 °F 87% 30.01 in 10.0 mi WSW 4.6 mph - N/A   Clear
10:52 PM 6.6 °F -6.1 °F 3.7 °F 88% 30.01 in 10.0 mi WSW 8.1 mph - N/A   Clear
11:13 PM 6.6 °F -7.1 °F 3.6 °F 87% 30.00 in 10.0 mi WSW 9.2 mph - N/A Snow Light Snow
11:32 PM 6.1 °F -5.6 °F 3.0 °F 87% 29.99 in 10.0 mi WSW 6.9 mph - N/A Snow Light Snow
11:52 PM 5.5 °F -5.0 °F 2.5 °F 87% 29.98 in 10.0 mi SW 5.8 mph - N/A   Clear